Nashville, TN

12:04 AM CST on February 23, 2017 (GMT -0600)
Nashville International

Weather History for KBNA - November, 2013

Change the Weather History Date:

Friday, November 8, 2013

  Actual Average Record
Temperature  
Mean Temperature 44 °F 53 °F  
Max Temperature 58 °F 64 °F 83 °F (2005)
Min Temperature 30 °F 42 °F 22 °F (1951)
Degree Days  
Heating Degree Days 21    
Month to date heating degree days 94  
Since 1 July heating degree days 273  
Cooling Degree Days 0    
Month to date cooling degree days 0  
Year to date cooling degree days 1730  
Moisture  
Dew Point 28 °F    
Average Humidity 58    
Maximum Humidity 92    
Minimum Humidity 24    
Precipitation  
Precipitation 0.00 in 0.11 in 3.29 in (2000)
Month to date precipitation 0.35 0.99  
Year to date precipitation 44.72 39.69  
Snow  
Snow 0.00 in - 0.00 in (2002)
Month to date snowfall 0.0  
Since 1 July snowfall 0.0  
Since 1 September snowfall 0.0  
Snow Depth 0.00 in    
Sea Level Pressure  
Sea Level Pressure 30.34 in    
Wind  
Wind Speed 3 mph (SE)    
Max Wind Speed 10 mph    
Max Gust Speed 18 mph    
Visibility 10 miles    
Events Fog    
T = Trace of Precipitation, MM = Missing Value Source: NWS Daily Summary

Daily Weather History Graph

Daily Weather History Graph

Search for Another Location

Airport or City:

Trip Planner

Search our weather history database for the weather conditions in past years. The results will help you decide how hot, cold, wet, or windy it might be!

Date:

Astronomy

Nov. 08, 2013 Rise Set
Actual Time 6:16 AM CST 4:43 PM CST
Civil Twilight 5:49 AM CST 5:10 PM CST
Nautical Twilight 5:18 AM CST 5:41 PM CST
Astronomical Twilight 4:48 AM CST 6:11 PM CST
Moon 11:11 AM CST (11/8) 10:03 PM CST (11/8)
Length of Visible Light 11h 21m
Length of Day
10h 27m
Waxing Crescent, 33% of the Moon is Illuminated
Nov 8
Waxing Crescent
Nov 9
First Quarter
Nov 17
Full
Nov 25
Last Quarter
Dec 2
New

Hourly Weather History & Observations

Time (CST) Temp. Windchill Dew Point Humidity Pressure Visibility Wind Dir Wind Speed Gust Speed Precip Events Conditions
12:53 AM 34.0 °F 31.0 °F 30.0 °F 85% 30.35 in 10.0 mi South 3.5 mph - N/A   Clear
1:53 AM 34.0 °F - 30.9 °F 89% 30.34 in 10.0 mi Calm Calm - N/A   Clear
2:53 AM 33.1 °F - 30.0 °F 89% 30.35 in 10.0 mi Calm Calm - N/A   Clear
3:53 AM 33.1 °F - 30.0 °F 89% 30.36 in 10.0 mi Calm Calm - N/A   Clear
4:53 AM 33.1 °F - 30.0 °F 89% 30.37 in 10.0 mi Calm Calm - N/A   Clear
5:53 AM 30.0 °F 25.2 °F 28.0 °F 92% 30.39 in 10.0 mi South 4.6 mph - N/A   Clear
6:53 AM 30.9 °F 27.5 °F 28.9 °F 92% 30.40 in 10.0 mi South 3.5 mph - N/A Fog Patches of Fog
7:53 AM 42.1 °F - 35.1 °F 76% 30.42 in 10.0 mi Calm Calm - N/A   Scattered Clouds
8:53 AM 46.0 °F 44.8 °F 36.0 °F 68% 30.41 in 10.0 mi East 3.5 mph - N/A   Partly Cloudy
9:53 AM 50.0 °F - 28.0 °F 43% 30.43 in 10.0 mi ESE 9.2 mph - N/A   Partly Cloudy
10:53 AM 54.0 °F - 27.0 °F 35% 30.41 in 10.0 mi Variable 4.6 mph - N/A   Partly Cloudy
11:53 AM 55.0 °F - 25.0 °F 31% 30.38 in 10.0 mi East 5.8 mph - N/A   Partly Cloudy
12:53 PM 55.0 °F - 23.0 °F 29% 30.35 in 10.0 mi East 4.6 mph - N/A   Partly Cloudy
1:53 PM 57.0 °F - 21.9 °F 26% 30.33 in 10.0 mi East 3.5 mph - N/A   Partly Cloudy
2:53 PM 55.9 °F - 21.9 °F 27% 30.32 in 10.0 mi Variable 4.6 mph - N/A   Partly Cloudy
3:53 PM 53.1 °F - 24.1 °F 32% 30.30 in 10.0 mi East 4.6 mph - N/A   Scattered Clouds
4:53 PM 51.1 °F - 23.0 °F 33% 30.30 in 10.0 mi Calm Calm - N/A   Partly Cloudy
5:53 PM 50.0 °F - 23.0 °F 35% 30.30 in 10.0 mi Calm Calm - N/A   Partly Cloudy
6:53 PM 46.0 °F - 28.0 °F 50% 30.29 in 10.0 mi Calm Calm - N/A   Mostly Cloudy
7:53 PM 42.1 °F 39.2 °F 30.0 °F 62% 30.27 in 10.0 mi South 4.6 mph - N/A   Mostly Cloudy
8:53 PM 41.0 °F 38.0 °F 30.9 °F 67% 30.27 in 10.0 mi South 4.6 mph - N/A   Mostly Cloudy
9:53 PM 39.9 °F 36.7 °F 30.9 °F 70% 30.28 in 10.0 mi South 4.6 mph - N/A   Scattered Clouds
10:53 PM 39.9 °F - 30.0 °F 68% 30.27 in 10.0 mi Calm Calm - N/A   Mostly Cloudy
11:53 PM 36.0 °F 33.3 °F 30.9 °F 82% 30.27 in 10.0 mi South 3.5 mph - N/A   Mostly Cloudy